Regional Weather Roundup
Issued by NWS Lake Charles, LA

Home | Current Version | Previous Version | Text Only | Print | Product List | Glossary On
Versions: 1 2 3 4 5 6 7 8 9 10 11 12 13 14 15 16 17 18 19 20 21 22 23 24 25 26 27 28 29 30 31 32 33 34 35 36 37 38 39 40 41 42 43 44 45 46 47 48 49 50
000
ASUS44 KLCH 281710
RWRLCH
RWRLCH
REGIONAL WEATHER ROUNDUP
NATIONAL WEATHER SERVICE LAKE CHARLES LA
1200 PM CDT SAT MAR 28 2015

Note: "fair" indicates few or no clouds below 12,000 feet with no
significant weather and/or obstructions to visibility.


ACROSS SOUTHEAST TEXAS

CITY           SKY/WX    TMP DP  RH WIND       PRES   REMARKS
BEAUMONT       SUNNY     74  52  46 SE14      30.18F
BEAUMONT CITY    N/A     72  52  50 S13       30.19F
ORANGE         SUNNY     71  49  46 S12       30.21F
JASPER         SUNNY     71  46  40 SE6       30.21S
$$

ACROSS CENTRAL LOUISIANA

CITY           SKY/WX    TMP DP  RH WIND       PRES   REMARKS
LEESVILLE      SUNNY     65  45  47 S8        30.18F
FULLERTON        N/A     68  43  40 VRB3      30.17F
ALEXANDRIA INT SUNNY     62  44  51 SE8       30.20F
ESLER FIELD    SUNNY     63  40  42 SE8       30.22S
DERIDDER         N/A     65  44  45 CALM      30.22S
OAKDALE        SUNNY     66  44  44 S5        30.21F
OPELOUSAS        N/A     64  43  46 S5        30.22F
$$

ACROSS SOUTHWEST AND SOUTH CENTRAL LOUISIANA

CITY           SKY/WX    TMP DP  RH WIND       PRES   REMARKS
SULPHUR        SUNNY     70  54  57 SE14      30.22S
LAKE CHARLES   SUNNY     68  51  54 MISG      30.21F
CHENNAULT INT  SUNNY     66  52  59 SE12      30.21F
CAMERON PHI    NOT AVBL
DEQUINCY         N/A     68  47  47 SE6       30.19F
JENNINGS         N/A     65  47  50 SE5       30.22S
LAFAYETTE      SUNNY     66  45  46 S6        30.22F
NEW IBERIA     SUNNY     67  45  45 VRB5      30.22F
ABBEVILLE        N/A     67  46  46 E3        30.22F
PATTERSON      SUNNY     64  45  48 E7        30.24F
SALT POINT       N/A     64  47  53 SE8       30.22S
$$

SELECTED SITES ACROSS THE REGION

CITY           SKY/WX    TMP DP  RH WIND       PRES   REMARKS
HOUSTON BUSH   SUNNY     75  42  30 SW10      30.17F
HOUSTON HOBBY  SUNNY     74  43  32 SW12      30.18F
GALVESTON      SUNNY     70  57  63 S10       30.20S
COLLEGE STAT   SUNNY     73  45  36 SW12      30.14F
CONROE         SUNNY     72  45  37 S13       30.16F
HUNTSVILLE     SUNNY     72  46  39 S13G18    30.15F
LUFKIN         SUNNY     74  44  34 S12       30.16F
SHREVEPORT     PTSUNNY   65  43  44 SE10      30.17S
MONROE         PTSUNNY   54  38  54 VRB6      30.24F
NATCHEZ MS     PTSUNNY   57  37  47 E5        30.25R
BATON ROUGE    SUNNY     63  39  41 S5        30.24F
N.O. INTL ARPT MOSUNNY   63  41  44 S7        30.26S
SLIDELL        SUNNY     60  37  42 SE6       30.25F
$$

MARINE REPORTS

STATION/POSITION TIME  TEMP    WIND        PRES    VSBY  WAVE
                       AIR SEA DIR/SP/G                  HT/PER
                 (UTC) (F)     (DEG/KT/KT) (MB)    (MI)  (FT/S)
BUOY 30 S HIGH I 1650   65 65  170/  6/  8 1022.2F         2/ 3
SEA RIM ST PARK  1700   66     160/  9/ 11 1023.2F
PORT ARTHUR      1600          160/  7/ 10   N/A
SABINE PASS N    1600   65 67  150/ 13/ 15 1022.9R
TEXAS POINT      NOT AVBL
CALCASIEU PASS   1600   63 64  160/ 11/ 15   N/A
LK CHARLES BEACH 1600   64 66              1023.2R
MARSH ISLAND     NOT AVBL
FRESH WATER LOCK 1600   61 66   90/ 10/ 14 1023.6R
AMERADA PASS     1600   61 57  100/  9/ 11 1023.5F
$$



USA.gov is the U.S. government's official web portal to all federal, state and local government web resources and services.